This is the latest recevied weather packets stored in our database for station/object KB0BDN-13. If no packets are shown the sender has not sent any weather packets the latest 10 day(s).
| Time | Temp. | Humidity | Pressure | Rain* | Wind** | Luminosity | Snow |
|---|---|---|---|---|---|---|---|
| 1777617126 | -2.22° C | 80% | 1012.5 hPa | 0 mm | - | - | - |
| 1777616226 | -1.67° C | 79% | 1012.5 hPa | 0 mm | - | - | - |
| 1777615326 | -1.67° C | 78% | 1012.5 hPa | 0 mm | - | - | - |
| 1777614426 | -1.67° C | 77% | 1012.5 hPa | 0 mm | - | - | - |
| 1777613526 | -1.11° C | 76% | 1012.5 hPa | 0 mm | - | - | - |
| 1777612626 | -1.11° C | 75% | 1012.5 hPa | 0 mm | - | - | - |
| 1777611726 | -1.11° C | 75% | 1012.4 hPa | 0 mm | - | - | - |
| 1777610826 | -1.67° C | 75% | 1012.4 hPa | 0 mm | - | - | - |
| 1777609926 | -1.67° C | 75% | 1012.2 hPa | 0 mm | - | - | - |
| 1777609026 | -1.11° C | 73% | 1012.3 hPa | 0 mm | - | - | - |
| 1777608126 | -1.11° C | 72% | 1012.4 hPa | 0 mm | - | - | - |
| 1777607226 | -1.11° C | 75% | 1012.4 hPa | 0 mm | - | - | - |
| 1777606325 | -0.56° C | 75% | 1012.5 hPa | 0 mm | - | - | - |
| 1777605426 | -0.56° C | 74% | 1012.5 hPa | 0 mm | - | - | - |
| 1777604525 | -0.56° C | 73% | 1012.5 hPa | 0 mm | - | - | - |
| 1777603626 | -0.56° C | 72% | 1012.5 hPa | 0 mm | - | - | - |
| 1777602725 | 0° C | 72% | 1012.5 hPa | 0 mm | - | - | - |
| 1777601825 | 0° C | 71% | 1012.5 hPa | 0 mm | - | - | - |
| 1777600925 | 0° C | 70% | 1012.5 hPa | 0 mm | - | - | - |
| 1777600025 | 0° C | 70% | 1012.2 hPa | 0 mm | - | - | - |
| 1777599125 | 0° C | 69% | 1012.1 hPa | 0 mm | - | - | - |
| 1777598225 | 0° C | 68% | 1012 hPa | 0 mm | - | - | - |
| 1777597325 | 0.56° C | 67% | 1011.9 hPa | 0 mm | - | - | - |
| 1777596425 | 0.56° C | 66% | 1011.9 hPa | 0 mm | - | - | - |
| 1777595525 | 0.56° C | 65% | 1011.9 hPa | 0 mm | - | - | - |
* Rain latest hour (hover to see other rain measurements)
** Current wind speed in m/s (hover to see current wind gust speed)